[[{"header":{"parameterUnit":"m.s-1","parameterCategory":1,"la1":30.2991,"la2":30.254,"lo1":-89.0895,"lo2":-89.0444,"dx":0.0017,"dy":0.0017,"nx":28,"ny":28,"refTime":"2023-01-23T03:00:00:Z","depth":0,"parameterNumber":2,"parameterNumberName":"U-component_of_WINDS"},"data":[0,0,0,0,0,0,0,0,0,0,0,0,0,0,0,0,0,0,0,0,0,0,0,0,0,0,0,0,0,0,0,0,0,0,0,0,0,0,0,0,0,0,0,0,0,0,0,0,0,0,0,0,0,0,0,0,0,0,2.0494,2.0494,0,2.0509,2.051,2.051,2.0484,2.0483,2.0482,2.0482,2.0497,2.0498,2.0499,0,0,0,0,0,0,0,0,0,0,0,0,0,2.0441,2.0442,2.0493,2.0494,2.0494,2.0509,2.051,2.051,2.0484,2.0483,2.0482,2.0481,2.0496,2.0498,2.0499,0,0,0,0,0,0,0,0,0,0,0,0,0,2.0461,2.0442,2.0493,2.0483,2.0482,2.0509,2.051,2.051,2.0485,2.0483,2.0482,2.0481,2.0496,2.0498,2.0499,2.0537,0,0,2.0505,2.0506,0,0,0,0,0,0,0,0,2.046,2.0463,2.0484,2.0484,2.0483,2.0494,2.0497,2.0519,2.0485,2.0484,2.0482,2.048,2.0497,2.0498,2.0504,2.0538,2.0539,2.0505,2.0506,2.0507,2.0508,0,0,0,0,0,0,0,2.0458,2.0462,2.05,2.0485,2.0484,2.0478,2.0479,2.0501,2.0497,2.0484,2.0482,2.0484,2.0496,2.0503,2.0504,2.0539,2.0505,2.0507,2.0508,2.0509,2.0605,2.0606,0,0,0,0,0,0,2.0458,2.0461,2.0499,2.05,2.0468,2.048,2.0481,2.0491,2.0497,2.0497,2.0485,2.0483,2.05,2.0502,2.0505,2.0549,2.0507,2.0509,2.051,2.0604,2.0605,2.0607,0,0,0,0,0,0,2.0457,2.0462,2.0499,2.048,2.0484,2.0482,2.0494,2.0492,2.0499,2.0498,2.0497,2.0492,2.0499,2.0502,2.053,2.055,2.051,2.0511,2.0602,2.0604,2.0606,2.0639,0,0,0,0,0,0,2.0456,2.0462,2.0476,2.0481,2.0485,2.0523,2.0495,2.0494,2.0502,2.0499,2.0505,2.0504,2.0498,2.0527,2.0531,2.0551,2.0513,2.06,2.0603,2.0605,2.0636,2.0642,2.0647,0,0,0,0,0,2.0454,2.0484,2.0477,2.0482,2.0503,2.0524,2.0527,2.052,2.0504,2.0518,2.0518,2.0504,2.0547,2.053,2.0535,2.0556,2.0599,2.0602,2.0605,2.0634,2.0641,2.0647,0,0,0,0,0,0,2.0481,2.0484,2.0476,2.0509,2.0517,2.052,2.0537,2.0527,2.0539,2.0536,2.0526,2.0528,2.0557,2.0559,2.054,2.0593,2.057,2.0575,2.059,2.0597,2.0602,2.0601,2.0514,0,0,0,0,0,2.0491,2.0508,2.051,2.0538,2.0543,2.054,2.0549,2.0543,2.055,2.0553,2.0555,2.0562,2.0577,2.0588,2.0601,2.0637,2.0638,2.0654,2.0659,2.0664,2.0667,2.0687,2.0694,2.0618,2.0618,2.0618,0,0,2.0511,2.0515,2.0526,2.0544,2.0549,2.0567,2.0543,2.0562,2.0575,2.0556,2.0582,2.0584,2.0592,2.0623,2.0637,2.0626,2.0689,2.0668,2.0672,2.0673,2.0691,2.0698,2.0704,2.062,2.062,2.0619,0,0,2.0556,2.0561,2.0586,2.0592,2.0601,2.0599,2.0605,2.061,2.0611,2.0637,2.0623,2.0639,2.0665,2.0671,2.0678,2.0728,2.0716,2.0733,2.0762,2.0781,2.0787,2.0792,2.0809,2.0816,2.0737,2.0737,2.0737,0,2.058,2.0606,2.0599,2.0621,2.0629,2.0613,2.0638,2.0644,2.0657,2.0663,2.0651,2.0684,2.0688,2.0721,2.0734,2.074,2.0747,2.0732,2.0786,2.0792,2.0796,2.0813,2.082,2.0739,2.0739,2.0739,2.0739,0,2.0635,2.0654,2.0673,2.0686,2.0697,2.072,2.0716,2.0728,2.0722,2.0721,2.0749,2.0753,2.0768,2.0776,2.077,2.0809,2.0801,2.0788,2.0765,2.0806,2.0821,2.0828,2.0742,2.0741,2.0741,2.074,0,0,2.0696,2.0707,2.0714,2.072,2.0729,2.0744,2.0766,2.0782,2.0792,2.0802,2.082,2.0844,2.0832,2.084,2.0834,2.0851,2.0891,2.0835,2.0835,2.0845,2.0934,2.0944,2.0951,2.0883,2.0885,2.0886,2.0933,0,2.0741,2.078,2.0775,2.0813,2.083,2.0817,2.0837,2.0845,2.0845,2.086,2.0861,2.0878,2.0861,2.0865,2.0882,2.0882,2.0908,2.0879,2.09,2.0901,2.0897,2.0959,2.0969,2.1014,2.0939,2.094,2.0941,0,2.0798,2.0811,2.085,2.0858,2.0865,2.0883,2.0897,2.0912,2.0921,2.0921,2.0931,2.0922,2.0945,2.0923,2.0955,2.0935,2.0944,2.0946,2.0947,2.0948,2.0923,2.0961,2.1028,2.1034,2.0951,2.095,2.0949,0,2.0838,2.0865,2.0893,2.0899,2.0908,2.0921,2.0926,2.0934,2.0944,2.0957,2.0963,2.0978,2.0986,2.0998,2.0995,2.0979,2.1027,2.1004,2.1027,2.1027,2.1036,2.1035,2.1105,2.1044,2.1044,2.1044,2.1043,0,2.0888,2.0913,2.0911,2.0927,2.0955,2.095,2.0977,2.098,2.0988,2.1005,2.0994,2.101,2.1005,2.1021,2.1019,2.1045,2.1049,2.1049,2.1048,2.105,2.105,2.1054,2.105,2.1045,2.1045,2.1045,2.1044,0,2.0936,2.0936,2.0965,2.0973,2.0975,2.0995,2.1002,2.1018,2.1018,2.104,2.1045,2.1046,2.1065,2.1063,2.1083,2.1082,2.1115,2.111,2.1111,2.111,2.1132,2.113,2.1206,2.1216,2.1149,2.115,2.1151,0,2.0968,2.0986,2.0997,2.1008,2.1014,2.1031,2.1042,2.1038,2.105,2.1063,2.1077,2.1095,2.1109,2.1139,2.1142,2.1158,2.1153,2.1179,2.1155,2.1156,2.1153,2.1151,2.1153,2.1183,2.1183,2.1184,2.1185,0,2.1023,2.1023,2.1038,2.1055,2.1068,2.108,2.1091,2.1101,2.1099,2.1112,2.1131,2.1142,2.1164,2.1182,2.1197,2.1202,2.1193,2.1192,2.1198,2.1199,2.1199,2.1199,2.1123,2.119,2.1189,2.1189,2.1189,2.1189,2.1064,2.108,2.109,2.1108,2.1117,2.1128,2.1143,2.1147,2.1163,2.118,2.1178,2.1199,2.1209,2.1229,2.1236,2.1253,2.1244,2.1252,2.1254,2.1256,2.1259,2.1198,2.1256,2.1256,2.1256,2.1256,2.1255,0,2.1118,2.1124,2.1141,2.1158,2.1173,2.1164,2.1177,2.1189,2.1208,2.1219,2.1233,2.1256,2.1274,2.1278,2.1296,2.1308,2.1305,2.1313,2.1311,2.1312,2.1266,2.1259,2.1316,2.1316,2.1316,2.1316,2.1315,2.1315,2.1148,2.1175,2.1176,2.1208,2.1214,2.1236,2.1243,2.1254,2.1262,2.1288,2.1303,2.1307,2.1315,2.1333,2.1349,2.135,2.1356,2.1366,2.1365,2.1322,2.1316,2.131,2.1303,2.1368,2.1368,2.141,2.141,2.1411]},{"header":{"parameterUnit":"m.s-1","parameterCategory":1,"la1":30.2991,"la2":30.254,"lo1":-89.0895,"lo2":-89.0444,"dx":0.0017,"dy":0.0017,"nx":28,"ny":28,"refTime":"2023-01-23T03:00:00:Z","depth":0,"parameterNumber":3,"parameterNumberName":"V-component_of_WINDS"},"data":[0,0,0,0,0,0,0,0,0,0,0,0,0,0,0,0,0,0,0,0,0,0,0,0,0,0,0,0,0,0,0,0,0,0,0,0,0,0,0,0,0,0,0,0,0,0,0,0,0,0,0,0,0,0,0,0,0,0,-5.8364,-5.8366,0,-5.856,-5.8562,-5.8564,-5.8524,-5.852,-5.8516,-5.8513,-5.871,-5.8719,-5.8727,0,0,0,0,0,0,0,0,0,0,0,0,0,-5.7951,-5.7959,-5.8363,-5.8366,-5.8368,-5.856,-5.8562,-5.8565,-5.8524,-5.852,-5.8516,-5.8511,-5.8707,-5.8718,-5.8728,0,0,0,0,0,0,0,0,0,0,0,0,0,-5.8137,-5.7961,-5.8363,-5.8371,-5.8374,-5.8559,-5.8562,-5.8566,-5.8525,-5.852,-5.8514,-5.8509,-5.8704,-5.8717,-5.8729,-5.8917,0,0,-5.8769,-5.8774,0,0,0,0,0,0,0,0,-5.8126,-5.8152,-5.8368,-5.8371,-5.8374,-5.8512,-5.8489,-5.8683,-5.8527,-5.8468,-5.8513,-5.8507,-5.8648,-5.8666,-5.8714,-5.8927,-5.8935,-5.877,-5.8778,-5.8783,-5.8787,0,0,0,0,0,0,0,-5.8114,-5.8143,-5.8441,-5.8371,-5.8375,-5.8364,-5.8385,-5.8526,-5.8586,-5.8472,-5.847,-5.8494,-5.8649,-5.8702,-5.8718,-5.8938,-5.877,-5.8781,-5.8789,-5.8794,-5.9315,-5.9321,0,0,0,0,0,0,-5.8098,-5.8133,-5.8435,-5.8447,-5.8235,-5.8376,-5.8399,-5.8473,-5.8584,-5.8596,-5.8498,-5.8491,-5.8682,-5.8703,-5.8725,-5.8954,-5.8783,-5.8795,-5.8803,-5.9309,-5.9317,-5.9323,0,0,0,0,0,0,-5.8089,-5.8125,-5.8427,-5.829,-5.8327,-5.8389,-5.8473,-5.848,-5.8532,-5.8604,-5.8614,-5.8541,-5.8679,-5.8707,-5.887,-5.896,-5.8801,-5.8813,-5.9302,-5.9312,-5.932,-5.9411,0,0,0,0,0,0,-5.8078,-5.8123,-5.8195,-5.8291,-5.8335,-5.857,-5.8478,-5.8488,-5.8555,-5.8548,-5.8647,-5.8658,-5.8677,-5.8851,-5.8883,-5.8975,-5.8823,-5.9294,-5.9306,-5.9317,-5.9401,-5.9422,-5.9441,0,0,0,0,0,-5.8063,-5.8212,-5.8199,-5.8236,-5.8427,-5.8575,-5.86,-5.862,-5.8563,-5.8636,-5.8682,-5.8655,-5.8945,-5.8868,-5.8904,-5.9001,-5.9289,-5.9303,-5.9316,-5.9392,-5.9418,-5.9441,0,0,0,0,0,0,-5.8123,-5.8225,-5.8211,-5.8396,-5.8478,-5.8568,-5.8661,-5.8647,-5.8745,-5.8734,-5.8753,-5.8776,-5.8943,-5.8988,-5.8901,-5.9189,-5.9109,-5.913,-5.9154,-5.918,-5.9199,-5.9185,-5.8834,0,0,0,0,0,-5.8158,-5.8271,-5.8353,-5.8508,-5.855,-5.8599,-5.8664,-5.8673,-5.8757,-5.8791,-5.8849,-5.8931,-5.9041,-5.9112,-5.9217,-5.9407,-5.9428,-5.9491,-5.9511,-5.9527,-5.9546,-5.965,-5.968,-5.9368,-5.9368,-5.9368,0,0,-5.8231,-5.83,-5.837,-5.8522,-5.8586,-5.8702,-5.8628,-5.8753,-5.884,-5.8809,-5.8968,-5.9013,-5.9106,-5.9284,-5.9365,-5.9327,-5.9636,-5.9545,-5.9557,-5.9567,-5.9667,-5.9697,-5.9723,-5.9378,-5.9376,-5.9375,0,0,-5.8424,-5.8487,-5.8624,-5.869,-5.8789,-5.8821,-5.8853,-5.8947,-5.8977,-5.9136,-5.9116,-5.9218,-5.9407,-5.9474,-5.9533,-5.9753,-5.9731,-5.9786,-5.9892,-5.9994,-6.0018,-6.004,-6.0119,-6.0147,-5.9804,-5.9804,-5.9804,0,-5.8502,-5.8677,-5.8696,-5.8825,-5.8892,-5.8871,-5.901,-5.9073,-5.92,-5.9247,-5.9202,-5.9439,-5.95,-5.9694,-5.9748,-5.9796,-5.9834,-5.9775,-6.0013,-6.0035,-6.0056,-6.0132,-6.0161,-5.981,-5.9809,-5.9809,-5.9808,0,-5.8768,-5.889,-5.8989,-5.9114,-5.9192,-5.9325,-5.9364,-5.9441,-5.9442,-5.9478,-5.9642,-5.9714,-5.9834,-5.988,-5.9882,-6.0075,-6.0048,-6.0009,-5.9928,-6.0092,-6.0163,-6.0192,-5.9819,-5.9817,-5.9815,-5.9813,0,0,-5.9004,-5.9139,-5.9175,-5.9233,-5.934,-5.9434,-5.9566,-5.9685,-5.9751,-5.9839,-5.995,-6.011,-6.0075,-6.0142,-6.0151,-6.024,-6.0411,-6.019,-6.0192,-6.0229,-6.0629,-6.0659,-6.0692,-6.0397,-6.0403,-6.0407,-6.0621,0,-5.9207,-5.9441,-5.9463,-5.9673,-5.9786,-5.9768,-5.9883,-5.9961,-5.9998,-6.0099,-6.0139,-6.0254,-6.0197,-6.0238,-6.0325,-6.0372,-6.0492,-6.0356,-6.0501,-6.0506,-6.0479,-6.0729,-6.0761,-6.0959,-6.0649,-6.0654,-6.0657,0,-5.9476,-5.9574,-5.9796,-5.9889,-5.9937,-6.004,-6.0151,-6.0248,-6.0336,-6.0357,-6.0432,-6.043,-6.0565,-6.048,-6.0666,-6.0574,-6.0634,-6.0666,-6.0674,-6.0688,-6.0592,-6.0752,-6.1023,-6.1053,-6.0701,-6.0698,-6.0695,0,-5.9627,-5.9815,-5.9972,-6.0021,-6.0133,-6.0206,-6.0256,-6.0339,-6.0409,-6.0506,-6.0552,-6.0662,-6.0723,-6.0808,-6.0835,-6.077,-6.1021,-6.0937,-6.1042,-6.1042,-6.1096,-6.1093,-6.1382,-6.1134,-6.1133,-6.1133,-6.1132,0,-5.9852,-5.9989,-6.0042,-6.0138,-6.0291,-6.0314,-6.0463,-6.0509,-6.0583,-6.0688,-6.0679,-6.0777,-6.0807,-6.0911,-6.0933,-6.1084,-6.1111,-6.1132,-6.1136,-6.1134,-6.1131,-6.1174,-6.1161,-6.1141,-6.1139,-6.1137,-6.1136,0,-6.0047,-6.0088,-6.0258,-6.0351,-6.0378,-6.0486,-6.0565,-6.0658,-6.0694,-6.0827,-6.0859,-6.0915,-6.1037,-6.1073,-6.1218,-6.1233,-6.1411,-6.1402,-6.1382,-6.1383,-6.1486,-6.1476,-6.1814,-6.186,-6.158,-6.1583,-6.1585,0,-6.0189,-6.0294,-6.0398,-6.0469,-6.0522,-6.0635,-6.0708,-6.0734,-6.0809,-6.0918,-6.0999,-6.1119,-6.1217,-6.1412,-6.1465,-6.1576,-6.1571,-6.1681,-6.1587,-6.1582,-6.1574,-6.1568,-6.1579,-6.1699,-6.1702,-6.1704,-6.1706,0,-6.0436,-6.0452,-6.0557,-6.067,-6.0757,-6.0846,-6.0933,-6.099,-6.1029,-6.1114,-6.124,-6.1316,-6.1465,-6.1585,-6.1698,-6.1748,-6.1735,-6.1736,-6.1766,-6.1765,-6.1749,-6.176,-6.1432,-6.1728,-6.1726,-6.1724,-6.1723,-6.1722,-6.061,-6.0703,-6.0791,-6.0909,-6.0977,-6.1058,-6.1151,-6.1199,-6.1304,-6.1429,-6.1438,-6.1574,-6.1659,-6.181,-6.1867,-6.1973,-6.194,-6.1984,-6.1995,-6.2006,-6.2015,-6.1732,-6.1993,-6.1992,-6.1992,-6.1991,-6.1991,0,-6.0858,-6.0914,-6.1022,-6.1144,-6.1237,-6.1217,-6.1311,-6.139,-6.151,-6.1592,-6.1689,-6.1833,-6.1949,-6.2012,-6.2128,-6.2201,-6.2198,-6.2231,-6.2226,-6.2238,-6.2037,-6.2,-6.2232,-6.2231,-6.2231,-6.2231,-6.2231,-6.2231,-6.0998,-6.1154,-6.118,-6.137,-6.1425,-6.156,-6.1615,-6.169,-6.1756,-6.1918,-6.2015,-6.2056,-6.213,-6.2252,-6.2358,-6.2373,-6.2416,-6.2454,-6.2465,-6.2276,-6.2252,-6.2228,-6.2194,-6.2463,-6.2463,-6.2658,-6.266,-6.2661]}]]